LIPSM ENBR-ENZV

Flight info

Callsign LIPSM
Flight time 0h 39m
Altitude 3500
Route HORGEFJORD DCT STAVANGER
Aircraft PA34/L-SDFGRY/S

Departure

Time 2026-05-08 17:58
Airport Bergen Airport, Flesland (ENBR)

Arrival

Time 2026-05-08 18:38
Airport Stavanger Airport, Sola (ENZV)
Time Latitude Longitude Altitude Speed Heading
2026-05-08 17:43 60.29945 5.22664 162 ft 0 kts 143°
2026-05-08 17:54 60.29939 5.22671 162 ft 5 kts 154°
2026-05-08 17:54 60.29888 5.22665 161 ft 7 kts 199°
2026-05-08 17:54 60.29841 5.22630 159 ft 7 kts 207°
2026-05-08 17:54 60.29793 5.22549 156 ft 11 kts 225°
2026-05-08 17:55 60.29751 5.22379 154 ft 16 kts 258°
2026-05-08 17:55 60.29733 5.22129 147 ft 17 kts 263°
2026-05-08 17:55 60.29714 5.21898 143 ft 5 kts 260°
2026-05-08 17:55 60.29711 5.21869 142 ft 0 kts 258°
2026-05-08 17:56 60.29711 5.21868 142 ft 0 kts 258°
2026-05-08 17:56 60.29709 5.21827 141 ft 5 kts 263°
2026-05-08 17:57 60.29693 5.21704 138 ft 8 kts 212°
2026-05-08 17:57 60.29655 5.21709 138 ft 5 kts 170°
2026-05-08 17:57 60.29606 5.21726 139 ft 12 kts 169°
2026-05-08 17:57 60.29416 5.21788 144 ft 47 kts 170°
2026-05-08 17:58 60.28959 5.21921 221 ft 78 kts 173°
2026-05-08 17:58 60.28357 5.22014 400 ft 90 kts 176°
2026-05-08 17:58 60.27697 5.21938 627 ft 97 kts 194°
2026-05-08 17:58 60.27051 5.21184 866 ft 102 kts 208°
2026-05-08 17:59 60.26418 5.20382 1091 ft 104 kts 207°
2026-05-08 17:59 60.25756 5.19606 1271 ft 107 kts 205°
2026-05-08 17:59 60.25071 5.18815 1336 ft 108 kts 205°
2026-05-08 17:59 60.24390 5.18039 1382 ft 110 kts 202°
2026-05-08 18:00 60.23676 5.17394 1452 ft 110 kts 201°
2026-05-08 18:00 60.22199 5.16140 1550 ft 111 kts 200°
2026-05-08 18:00 60.21477 5.15486 1579 ft 113 kts 196°
2026-05-08 18:01 60.20705 5.15003 1607 ft 114 kts 193°
2026-05-08 18:01 60.19936 5.14557 1598 ft 116 kts 193°
2026-05-08 18:01 60.19155 5.14100 1655 ft 114 kts 192°
2026-05-08 18:01 60.18353 5.13685 1643 ft 118 kts 191°
2026-05-08 18:02 60.17525 5.13391 1663 ft 116 kts 184°
2026-05-08 18:02 60.16973 5.13301 1685 ft 115 kts 181°
2026-05-08 18:02 60.15872 5.13128 1684 ft 117 kts 185°
2026-05-08 18:02 60.15059 5.12958 1695 ft 116 kts 182°
2026-05-08 18:03 60.14244 5.12843 1704 ft 116 kts 183°
2026-05-08 18:03 60.13430 5.12796 1702 ft 116 kts 175°
2026-05-08 18:03 60.12619 5.13048 1706 ft 117 kts 164°
2026-05-08 18:03 60.11842 5.13601 1714 ft 117 kts 159°
2026-05-08 18:04 60.11085 5.14247 1735 ft 116 kts 158°
2026-05-08 18:04 60.10316 5.14966 1718 ft 118 kts 153°
2026-05-08 18:04 60.09620 5.15979 1714 ft 120 kts 140°
2026-05-08 18:04 60.09023 5.17306 1730 ft 121 kts 134°
2026-05-08 18:05 60.08452 5.18670 1727 ft 127 kts 135°
2026-05-08 18:05 60.07810 5.20087 1796 ft 132 kts 135°
2026-05-08 18:05 60.07146 5.21538 1824 ft 136 kts 136°
2026-05-08 18:05 60.06457 5.23086 1851 ft 140 kts 132°
2026-05-08 18:06 60.05816 5.24661 1905 ft 141 kts 132°
2026-05-08 18:06 60.05167 5.26199 1907 ft 144 kts 135°
2026-05-08 18:06 60.04460 5.27697 1909 ft 145 kts 136°
2026-05-08 18:06 60.03704 5.29200 1867 ft 149 kts 137°
2026-05-08 18:07 60.02938 5.30724 1892 ft 147 kts 138°
2026-05-08 18:07 60.02152 5.32189 1861 ft 149 kts 140°
2026-05-08 18:07 60.01315 5.33644 1818 ft 150 kts 142°
2026-05-08 18:07 60.00481 5.34997 1827 ft 148 kts 143°
2026-05-08 18:08 59.99657 5.36348 1807 ft 149 kts 142°
2026-05-08 18:08 59.98827 5.37714 1789 ft 149 kts 142°
2026-05-08 18:08 59.98015 5.39086 1778 ft 150 kts 141°
2026-05-08 18:08 59.97227 5.40486 1778 ft 150 kts 140°
2026-05-08 18:09 59.96440 5.41882 1777 ft 150 kts 141°
2026-05-08 18:09 59.95625 5.43276 1753 ft 151 kts 140°
2026-05-08 18:09 59.94850 5.44704 1757 ft 150 kts 138°
2026-05-08 18:09 59.94069 5.46152 1751 ft 151 kts 139°
2026-05-08 18:10 59.93274 5.47575 1735 ft 152 kts 138°
2026-05-08 18:10 59.92510 5.49030 1856 ft 148 kts 139°
2026-05-08 18:10 59.91751 5.50318 2149 ft 138 kts 142°
2026-05-08 18:10 59.90988 5.51448 2366 ft 137 kts 148°
2026-05-08 18:11 59.90158 5.52458 2522 ft 140 kts 151°
2026-05-08 18:11 59.89305 5.53457 2723 ft 140 kts 149°
2026-05-08 18:11 59.88461 5.54474 2933 ft 140 kts 148°
2026-05-08 18:11 59.87619 5.55480 3115 ft 141 kts 149°
2026-05-08 18:12 59.86747 5.56472 3310 ft 142 kts 154°
2026-05-08 18:12 59.85803 5.57273 3507 ft 142 kts 156°
2026-05-08 18:12 59.84898 5.58125 3687 ft 142 kts 154°
2026-05-08 18:12 59.83948 5.59079 3578 ft 155 kts 149°
2026-05-08 18:13 59.82992 5.60282 3549 ft 157 kts 148°
2026-05-08 18:13 59.82016 5.61454 3516 ft 159 kts 149°
2026-05-08 18:13 59.81032 5.62586 3496 ft 159 kts 151°
2026-05-08 18:13 59.80022 5.63739 3463 ft 159 kts 150°
2026-05-08 18:14 59.79032 5.64888 3446 ft 158 kts 150°
2026-05-08 18:14 59.78057 5.66005 3427 ft 158 kts 151°
2026-05-08 18:14 59.77045 5.67096 3414 ft 157 kts 154°
2026-05-08 18:14 59.76024 5.68025 3429 ft 156 kts 158°
2026-05-08 18:15 59.74997 5.68878 3411 ft 157 kts 157°
2026-05-08 18:15 59.73986 5.69785 3402 ft 157 kts 156°
2026-05-08 18:15 59.72952 5.70740 3402 ft 157 kts 153°
2026-05-08 18:15 59.71983 5.71950 3375 ft 158 kts 145°
2026-05-08 18:16 59.71079 5.73342 3373 ft 158 kts 141°
2026-05-08 18:16 59.70195 5.74822 3382 ft 157 kts 140°
2026-05-08 18:16 59.69349 5.76252 3372 ft 158 kts 140°
2026-05-08 18:16 59.68436 5.77608 3355 ft 158 kts 149°
2026-05-08 18:17 59.67415 5.78571 3330 ft 158 kts 161°
2026-05-08 18:17 59.66329 5.79105 3340 ft 157 kts 171°
2026-05-08 18:17 59.65251 5.79433 3361 ft 155 kts 172°
2026-05-08 18:17 59.64165 5.79710 3357 ft 156 kts 173°
2026-05-08 18:18 59.63057 5.79937 3351 ft 156 kts 175°
2026-05-08 18:18 59.61940 5.80094 3360 ft 156 kts 177°
2026-05-08 18:18 59.60858 5.80166 3362 ft 156 kts 179°
2026-05-08 18:18 59.59769 5.80183 3361 ft 156 kts 180°
2026-05-08 18:19 59.58678 5.80156 3363 ft 156 kts 181°
2026-05-08 18:19 59.57595 5.80250 3353 ft 157 kts 173°
2026-05-08 18:19 59.56535 5.80765 3325 ft 158 kts 160°
2026-05-08 18:19 59.55552 5.81741 3318 ft 158 kts 148°
2026-05-08 18:20 59.54696 5.83094 3321 ft 157 kts 139°
2026-05-08 18:20 59.53861 5.84517 3339 ft 156 kts 140°
2026-05-08 18:20 59.52955 5.85715 3303 ft 158 kts 155°
2026-05-08 18:20 59.51900 5.86353 3348 ft 153 kts 168°
2026-05-08 18:21 59.50851 5.86774 3387 ft 152 kts 169°
2026-05-08 18:21 59.49795 5.87144 3387 ft 154 kts 171°
2026-05-08 18:21 59.48727 5.87474 3380 ft 155 kts 172°
2026-05-08 18:21 59.47630 5.87789 3368 ft 156 kts 172°
2026-05-08 18:22 59.46525 5.88146 3377 ft 155 kts 170°
2026-05-08 18:22 59.45432 5.88561 3383 ft 155 kts 169°
2026-05-08 18:22 59.44364 5.88987 3380 ft 155 kts 169°
2026-05-08 18:22 59.43302 5.89401 3382 ft 155 kts 169°
2026-05-08 18:23 59.42242 5.89763 3363 ft 154 kts 172°
2026-05-08 18:23 59.41159 5.90053 3175 ft 159 kts 173°
2026-05-08 18:23 59.40064 5.90308 3021 ft 159 kts 174°
2026-05-08 18:23 59.38973 5.90526 2952 ft 156 kts 175°
2026-05-08 18:24 59.37855 5.90719 2825 ft 156 kts 175°
2026-05-08 18:24 59.36732 5.90892 2675 ft 157 kts 176°
2026-05-08 18:24 59.35610 5.91065 2562 ft 156 kts 175°
2026-05-08 18:24 59.34491 5.91253 2462 ft 157 kts 175°
2026-05-08 18:25 59.33402 5.91419 2457 ft 155 kts 177°
2026-05-08 18:25 59.32332 5.91508 2452 ft 154 kts 178°
2026-05-08 18:25 59.31261 5.91555 2398 ft 155 kts 179°
2026-05-08 18:25 59.30179 5.91578 2356 ft 155 kts 180°
2026-05-08 18:26 59.29107 5.91581 2335 ft 154 kts 180°
2026-05-08 18:26 59.28033 5.91575 2304 ft 154 kts 180°
2026-05-08 18:26 59.26967 5.91593 2265 ft 154 kts 179°
2026-05-08 18:26 59.25895 5.91667 2228 ft 154 kts 177°
2026-05-08 18:27 59.24820 5.91782 2200 ft 153 kts 177°
2026-05-08 18:27 59.24096 5.91856 2179 ft 153 kts 177°
2026-05-08 18:27 59.22678 5.91949 2134 ft 152 kts 181°
2026-05-08 18:27 59.21619 5.91831 2102 ft 152 kts 185°
2026-05-08 18:28 59.20573 5.91601 2035 ft 152 kts 187°
2026-05-08 18:28 59.19506 5.91378 1934 ft 154 kts 185°
2026-05-08 18:28 59.18440 5.91173 1857 ft 153 kts 186°
2026-05-08 18:28 59.17387 5.90952 1801 ft 151 kts 186°
2026-05-08 18:29 59.16337 5.90726 1718 ft 152 kts 186°
2026-05-08 18:29 59.15300 5.90524 1632 ft 152 kts 185°
2026-05-08 18:29 59.14245 5.90260 1545 ft 152 kts 188°
2026-05-08 18:29 59.13216 5.89911 1492 ft 151 kts 190°
2026-05-08 18:30 59.12171 5.89538 1499 ft 148 kts 190°
2026-05-08 18:30 59.11161 5.89092 1502 ft 147 kts 194°
2026-05-08 18:30 59.10169 5.88518 1467 ft 148 kts 198°
2026-05-08 18:30 59.09200 5.87886 1508 ft 144 kts 197°
2026-05-08 18:31 59.08223 5.87248 1492 ft 145 kts 197°
2026-05-08 18:31 59.07234 5.86602 1446 ft 147 kts 198°
2026-05-08 18:31 59.06266 5.85952 1455 ft 145 kts 198°
2026-05-08 18:31 59.05316 5.85294 1463 ft 144 kts 199°
2026-05-08 18:32 59.04350 5.84584 1454 ft 145 kts 200°
2026-05-08 18:32 59.03400 5.83840 1436 ft 145 kts 201°
2026-05-08 18:32 59.02458 5.83020 1430 ft 145 kts 204°
2026-05-08 18:32 59.01535 5.82078 1431 ft 145 kts 208°
2026-05-08 18:33 59.00637 5.81041 1416 ft 146 kts 209°
2026-05-08 18:33 58.99739 5.79982 1400 ft 146 kts 209°
2026-05-08 18:33 58.98824 5.78949 1394 ft 145 kts 207°
2026-05-08 18:33 58.97882 5.78049 1379 ft 145 kts 201°
2026-05-08 18:34 58.96893 5.77356 1361 ft 145 kts 197°
2026-05-08 18:34 58.95879 5.76736 1366 ft 144 kts 196°
2026-05-08 18:34 58.94889 5.76107 1345 ft 145 kts 197°
2026-05-08 18:34 58.93911 5.75466 1346 ft 144 kts 197°
2026-05-08 18:35 58.93101 5.74333 1280 ft 152 kts 235°
2026-05-08 18:35 58.92922 5.72281 1268 ft 157 kts 268°
2026-05-08 18:35 58.92990 5.70260 1316 ft 148 kts 269°
2026-05-08 18:35 58.93070 5.68278 1100 ft 142 kts 270°
2026-05-08 18:36 58.93145 5.66413 1010 ft 129 kts 269°
2026-05-08 18:36 58.93003 5.64781 895 ft 119 kts 240°
2026-05-08 18:36 58.92550 5.63506 697 ft 111 kts 221°
2026-05-08 18:36 58.91888 5.63132 564 ft 94 kts 170°
2026-05-08 18:37 58.91288 5.63623 380 ft 91 kts 165°
2026-05-08 18:37 58.90685 5.63691 295 ft 78 kts 181°
2026-05-08 18:37 58.90158 5.63704 213 ft 72 kts 178°
2026-05-08 18:37 58.89659 5.63722 120 ft 69 kts 180°
2026-05-08 18:38 58.89175 5.63742 29 ft 67 kts 180°
2026-05-08 18:38 58.88761 5.63750 21 ft 34 kts 182°
2026-05-08 18:38 58.88708 5.63612 24 ft 13 kts 273°
2026-05-08 18:38 58.88708 5.63459 24 ft 7 kts 271°
2026-05-08 18:39 58.88722 5.63405 25 ft 4 kts 12°
2026-05-08 18:39 58.88759 5.63415 24 ft 6 kts
2026-05-08 18:39 58.88805 5.63418 24 ft 7 kts
2026-05-08 18:39 58.88856 5.63418 23 ft 7 kts 358°
2026-05-08 18:40 58.88904 5.63415 23 ft 6 kts 359°
2026-05-08 18:40 58.88947 5.63415 23 ft 6 kts 360°
2026-05-08 18:40 58.88988 5.63412 23 ft 5 kts 355°
2026-05-08 18:40 58.89022 5.63369 24 ft 7 kts 312°
2026-05-08 18:41 58.89108 5.63349 22 ft 17 kts 358°
2026-05-08 18:41 58.89193 5.63320 22 ft 6 kts 360°
2026-05-08 18:41 58.89209 5.63284 23 ft 0 kts 267°